Location: Hasprunka
(48.5265°N, 17.1373°E)
Time: 11:25:30
(UTC+00:00)

Daily predictions for brighter satellites

Satellite Brightness Start Highest point End
(mag) Time Altitude Azimuth Time Altitude Azimuth Time Altitude Azimuth
Meteor 2-3 Rocket 4.3 18:42:18 10° SSW 18:48:04 68° WNW 18:53:53 10° N
Meteor 1-10 Rocket 4.4 18:42:52 10° N 18:48:27 58° ENE 18:54:07 10° SSE
FREGAT/IRIS 3.7 18:49:59 10° S 18:52:29 38° W 18:55:00 10° NNW
Cosmos 2218 Rocket 4.2 18:48:10 10° S 18:54:21 82° W 19:00:32 10° N
Cosmos 1782 3.5 18:52:57 10° NNW 18:56:54 57° W 19:00:51 10° S
H-2A R/B 3.9 18:53:03 10° SSW 18:57:38 31° W 19:02:08 10° NNW
Cosmos 1980 Rocket 3.2 18:54:49 10° NNW 18:59:57 33° NE 19:05:03 10° ESE
Cosmos 1805 Rocket 3.9 18:56:23 10° SSE 19:00:38 48° E 19:04:56 10° NNE
ERBS 2.8 18:59:12 10° WSW 19:02:30 62° NNW 19:05:48 10° NE
DMSP B5D2-2 4.1 18:59:41 10° NNE 19:04:57 89° ESE 19:10:12 10° SSW
ATLAS 5 CENTAUR R/B 2.6 19:03:03 10° NW 19:08:42 72° SW 19:15:16 10° SSE
Cosmos 1140 Rocket 4.3 19:05:43 10° SSE 19:10:13 30° E 19:14:46 10° NE
SL-4 R/B 2.9 19:07:14 10° SSW 19:10:29 24° SE 19:13:32 10° E
Cosmos 1697 Rocket 2.8 19:10:24 10° NNW 19:16:02 68° ENE 19:21:20 11° SE
Cosmos 2228 Rocket 3.7 19:12:52 10° NNW 19:17:14 58° W 19:21:33 10° S
Cosmos 1833 Rocket 2.9 19:11:58 10° S 19:17:19 48° ESE 19:22:42 10° NE
CENTAUR R/B 4.1 19:17:41 10° ESE 19:18:49 11° E 19:20:16 10° E
Cosmos 389 Rocket 2.5 19:16:53 10° NNW 19:20:20 77° W 19:23:46 10° S
SPOT 3 Rocket 3.9 19:16:23 10° S 19:21:35 69° WSW 19:26:47 10° NNW
Cosmos 1812 2.7 19:18:21 10° N 19:22:13 90° NW 19:26:04 10° S
Cosmos 1727 Rocket 4.5 19:15:58 10° NNW 19:22:15 65° W 19:28:31 10° S
Cosmos 1633 Rocket 3.8 19:18:18 10° SSE 19:22:18 34° E 19:26:18 10° NNE
Cosmos 2251 Rocket 4.2 19:19:08 10° SW 19:24:19 59° WNW 19:29:35 10° NNE
Cosmos 1656 4.1 19:22:10 10° NW 19:27:33 60° WSW 19:32:59 10° S
Cosmos 1707 Rocket 3.5 19:27:19 10° N 19:31:42 74° E 19:35:44 12° SSE
Cosmos 220 Rocket 4.2 19:27:52 10° NNW 19:32:04 68° WSW 19:36:05 11° SSE
IRIDIUM 104 4.5 19:26:53 10° S 19:32:06 79° W 19:37:21 10° N
Resurs 01 Rocket 1.9 19:28:18 10° S 19:32:42 71° WSW 19:37:09 10° NNW
Landsat 7 4.0 19:30:06 13° SSE 19:34:11 59° ENE 19:38:53 10° N
FALCON 9 DEB 4.1 19:35:40 10° SSW 19:38:38 26° SE 19:41:37 10° E
Cosmos 1441 Rocket 3.3 19:35:01 10° SSW 19:38:49 77° WNW 19:42:35 10° N
Cosmos 1934 Rocket 4.2 19:33:18 10° S 19:39:30 58° E 19:45:44 10° NNE
Cosmos 614 Rocket 4.0 19:37:33 10° SSW 19:42:43 88° WNW 19:47:58 10° NNE
Cosmos 2360 4.2 19:37:15 10° NNW 19:43:03 83° ENE 19:47:32 17° SSE
NOSS 3-2 (A) 4.1 19:38:55 10° S 19:43:43 29° ESE 19:49:01 10° NE
IGS 5A 3.4 19:41:07 16° SSE 19:44:20 72° ENE 19:48:29 10° N
Cosmos 1470 Rocket 4.4 19:42:24 18° SE 19:44:57 33° E 19:48:54 10° NNE
USA 267 3.2 19:40:08 10° ENE 19:46:43 76° SE 19:53:16 10° SW
GP-B 3.2 19:45:37 10° N 19:50:01 58° E 19:53:13 18° SSE
SWAS 4.4 19:45:53 10° SSW 19:50:09 66° ESE 19:54:28 10° NE
Cosmos 1821 Rocket 4.2 19:46:37 10° SSW 19:52:44 74° W 19:58:59 10° N
COSMOS 2406 3.6 19:49:34 10° SW 19:55:17 68° WNW 20:01:02 10° NNE
Meteor 2-20 Rocket 4.5 19:49:25 10° N 19:55:37 73° E 20:00:27 17° SSE
Cosmos 921 Rocket 3.6 19:51:56 10° N 19:55:58 41° ENE 19:58:03 24° ESE
Shenzhou-11 Module 3.6 19:54:28 10° SW 19:55:30 15° SSW 19:55:30 15° SSW
Cosmos 1862 Rocket 3.6 19:53:46 10° N 19:58:15 69° E 20:01:01 22° SSE
SL-16 R/B 3.4 19:53:41 10° NNW 19:58:41 31° NE 20:02:26 16° E
ERS-1 Rocket 3.2 19:56:09 21° SE 19:59:20 57° ENE 20:04:16 10° N
Lacrosse 5 2.7 19:57:19 10° NW 20:02:13 45° NNE 20:06:22 14° E
Cosmos 2369 4.1 19:58:08 10° NNW 20:03:48 62° WSW 20:08:05 18° S
Sich 1 3.9 20:00:43 10° SSW 20:05:01 51° WNW 20:09:23 10° N
SAR-Lupe-2 4.1 20:03:26 10° NNE 20:06:48 37° E 20:07:36 32° SE
Cosmos 1818 4.4 20:03:29 10° NW 20:08:38 43° WSW 20:12:24 17° S
BREEZE-M DEB (TANK) 1.6 20:07:07 10° W 20:09:35 73° N 20:09:54 53° ENE
Cosmos 2082 Rocket 2.1 20:04:39 10° SSW 20:10:20 73° ESE 20:16:01 10° NNE
Cosmos 1954 Rocket 4.0 20:06:50 10° S 20:12:01 62° ESE 20:17:17 10° NNE
Cosmos 2123 Rocket 4.1 20:06:39 10° NNW 20:12:52 76° W 20:18:06 15° S
Cosmos 2278 3.8 20:07:24 10° NNW 20:13:08 76° WSW 20:16:44 23° SSE
Spot 2 Rocket 3.9 20:11:25 16° S 20:15:24 62° WSW 20:20:29 10° NNW
Cosmos 1535 Rocket 4.5 20:09:40 10° S 20:15:50 84° W 20:21:59 10° N
Meteor 1-4 Rocket 3.4 20:17:14 10° NNW 20:20:35 43° W 20:22:26 22° SSW
Cosmos 2322 Rocket 3.2 20:16:00 10° NNW 20:21:13 36° NE 20:24:25 20° ESE
CARTOSAT-1 3.5 20:20:05 30° SSE 20:22:12 88° ENE 20:26:33 10° NNW
Cosmos 1184 Rocket 2.8 20:21:01 29° SSW 20:22:32 80° W 20:25:52 10° N
USA 234 3.3 20:18:46 25° SE 20:22:52 69° SW 20:29:25 10° WNW
Cosmos 1190 Rocket 4.3 20:17:50 10° SSW 20:23:06 69° WNW 20:28:25 10° NNE
Terra 2.0 20:21:08 31° SE 20:23:17 59° ENE 20:27:59 10° N
Cosmos 1933 Rocket 3.6 20:24:16 33° SSE 20:26:05 60° E 20:30:28 10° NNE
Cosmos 407 Rocket 4.2 20:20:53 10° SW 20:26:06 55° WNW 20:31:19 10° NNE
Cosmos 1605 Rocket 3.9 20:21:08 16° S 20:26:08 81° E 20:32:15 10° N
Meteor 1-20 Rocket 4.2 20:23:25 17° S 20:27:59 80° E 20:33:53 10° NNE
Cosmos 1238 Rocket 1.9 20:28:02 63° SSE 20:28:25 79° E 20:31:22 10° NNE
Okean 1 3.3 20:26:11 10° N 20:30:13 70° E 20:31:27 42° SSE
Cosmos 1602 3.7 20:31:37 44° SSE 20:32:40 64° E 20:36:34 10° NNE
ATLAS 3B R/B 4.2 20:34:00 16° E 20:34:00 16° E 20:36:58 10° ENE
Cosmos 1437 Rocket 3.0 20:31:02 10° N 20:34:46 51° ENE 20:35:27 45° ESE
Cosmos 2360 Rocket 3.6 20:30:28 10° NNW 20:35:18 28° NE 20:38:35 17° E
Cosmos 1869 Rocket 4.4 20:35:53 31° ESE 20:36:21 32° E 20:40:18 10° NNE
SPOT 5 2.6 20:35:54 35° S 20:37:41 76° WSW 20:42:04 10° NNW
USA 238 DEB 3.6 20:32:42 10° SSW 20:39:14 65° SE 20:46:04 10° NE
USA 238 3.6 20:32:50 10° SSW 20:39:20 64° SE 20:46:10 10° NE
Meteor 1-19 Rocket 4.1 20:34:22 10° N 20:39:49 78° ENE 20:42:13 35° SSE
Iridium 4 Rocket 3.9 20:41:58 33° E 20:42:30 34° E 20:46:20 10° NNE
SPOT 1/Viking Rocket 4.4 20:39:53 19° SSW 20:43:23 44° W 20:48:23 10° NNW
Cosmos 1980 Rocket 2.8 20:38:43 10° NW 20:44:11 50° WSW 20:47:05 26° S
Cosmos 1703 Rocket 3.4 20:41:33 10° N 20:45:56 78° E 20:47:06 48° SSE
Cosmos 2242 Rocket 3.6 20:41:28 10° NNW 20:45:57 79° W 20:47:28 40° S
Cosmos 1763 Rocket 3.5 20:43:50 10° NNW 20:49:12 76° ENE 20:51:08 40° SE
Meteor 1-14 Rocket 4.3 20:46:52 31° S 20:49:45 71° E 20:55:40 10° NNE
SL-4 R/B 1.6 20:45:55 10° WSW 20:49:47 89° N 20:51:35 28° ENE
Cosmos 1500 4.0 20:50:18 35° E 20:50:18 35° E 20:53:25 10° NNE
Genesis I 4.0 20:46:27 10° NW 20:50:05 38° WSW 20:50:44 35° SW
Cosmos 405 Rocket 2.6 20:49:21 47° SSW 20:50:19 77° WNW 20:54:04 10° N
BREEZE-M DEB (TANK) 3.1 20:47:21 10° W 20:50:37 81° N 21:01:09 10° E
MOS 1-B Rocket 4.4 20:49:52 10° NNE 20:55:09 37° E 20:56:13 34° ESE
Cosmos 2333 Rocket 4.2 20:50:58 10° N 20:55:12 20° NE 20:59:20 10° E
Cosmos 1459 Rocket 4.1 20:58:06 37° SSE 21:00:27 58° E 21:06:41 10° NNE
Cosmos 1833 Rocket 4.3 20:56:20 10° WSW 21:01:25 34° NW 21:06:33 10° NNE
Cosmos 1666 4.4 21:02:40 21° ENE 21:02:40 21° ENE 21:04:47 10° NE
Cosmos 1153 Rocket 4.5 21:03:26 26° SSW 21:07:01 79° W 21:13:15 10° N
Okean 1-7 3.1 21:03:15 10° NNW 21:07:36 71° W 21:08:30 53° SSW
CENTAUR R/B 2.5 21:04:46 31° S 21:07:42 61° ESE 21:14:38 10° NE
Cosmos 1867 4.0 21:02:25 10° SW 21:07:49 64° NW 21:13:16 10° NE
Cosmos 2221 Rocket 4.2 21:04:14 10° N 21:08:30 42° ENE 21:09:01 41° E
Cosmos 1733 Rocket 4.4 21:13:55 25° E 21:13:55 25° E 21:17:11 10° NNE
Okean 3 3.6 21:09:26 10° N 21:13:40 57° ENE 21:13:59 55° E
FALCON 9 DEB 3.4 21:11:57 10° WSW 21:15:22 69° NW 21:15:22 69° NW
Cosmos 1802 Rocket 4.1 21:13:52 41° SSE 21:16:02 62° E 21:22:19 10° NNE
Thor Agena Rocket 4.2 21:11:31 10° NNE 21:16:13 37° E 21:16:25 37° ESE
Cosmos 1850 Rocket 3.9 21:14:18 40° SSW 21:16:19 85° ESE 21:21:38 10° NNE
Meteor 2-4 Rocket 3.6 21:11:25 10° NNW 21:17:10 86° W 21:18:53 47° S
Cosmos 1515 4.3 21:14:15 10° NNW 21:17:57 47° W 21:18:22 45° WSW
SL-27 R/B 3.5 21:19:37 35° NE 21:19:37 35° NE 21:21:44 10° NNE
Cosmos 44 3.4 21:17:05 10° NW 21:21:57 69° NE 21:23:09 50° ESE
ATLAS 5 CENTAUR R/B 2.2 21:19:20 10° NW 21:22:04 68° NE 21:23:25 44° ESE
Cosmos 2346 Rocket 4.4 21:19:06 10° N 21:25:10 68° ENE 21:26:55 46° SE
Spot 4 3.9 21:27:26 54° ESE 21:28:11 63° ENE 21:32:57 10° N
USA 267 4.0 21:23:15 10° NE 21:29:35 53° NNW 21:35:54 10° W
BREEZE-M DEB (TANK) 4.3 21:17:15 10° W 21:32:47 75° S 21:35:19 33° ESE
NOSS 3-2 (A) 3.8 21:28:13 10° SW 21:33:59 65° NW 21:40:41 10° NE
NOSS 3-2 (C) 3.4 21:35:51 22° SW 21:39:45 85° NW 21:46:28 10° NE
Cosmos 1816 Rocket 4.5 21:33:57 10° N 21:40:15 73° ENE 21:41:57 50° SSE
Cosmos 841 Rocket 3.4 21:35:56 10° NNW 21:41:10 76° WSW 21:42:00 61° S
Cosmos 540 Rocket 3.4 21:37:25 10° NNW 21:42:36 76° WSW 21:43:22 63° S
SL-16 R/B 2.5 21:37:34 10° NW 21:43:07 56° WSW 21:44:17 47° SSW
Lacrosse 5 1.9 21:40:22 10° WNW 21:45:22 60° SW 21:45:31 60° SSW
Cosmos 2322 4.4 21:40:18 10° NNW 21:45:45 45° NE 21:47:36 34° E
Cosmos 1378 Rocket 4.2 21:47:29 10° N 21:51:45 43° ENE 21:51:45 43° ENE
Cosmos 1570 Rocket 4.2 21:47:10 10° NNW 21:52:24 60° WSW 21:53:10 54° SW
Tsikada Rocket 4.0 21:46:53 10° N 21:53:18 80° E 21:54:55 53° SSE
Cosmos 2219 Rocket 3.2 21:49:08 10° NNW 21:54:26 38° NE 21:56:38 28° E
Cosmos 2208 Rocket 4.0 21:49:17 10° NNW 21:54:32 68° WSW 21:55:11 62° SSW
Cosmos 1814 Rocket 3.9 21:49:44 10° NNW 21:54:56 71° WSW 21:55:32 64° SSW
Cosmos 2082 Rocket 4.3 21:50:20 10° W 21:55:00 25° NW 21:59:40 10° N
Cosmos 2084 Rocket 3.6 21:59:01 65° NE 21:59:01 65° NE 22:02:45 10° NE
Cosmos 2237 4.1 21:53:53 10° NNW 21:59:38 82° WSW 22:00:34 63° S
Terra 3.8 22:00:02 17° WSW 22:01:25 19° W 22:04:48 10° NW
Cosmos 2322 Rocket 2.7 22:00:00 10° NW 22:05:25 46° WSW 22:06:13 44° SW
EO 1 Del DPAF 3.8 22:01:58 10° NNE 22:04:57 54° NNE 22:04:57 54° NNE
Meteor 1-11 Rocket 3.8 22:09:09 54° SW 22:10:26 74° WNW 22:16:12 10° N
Cosmos 1242 Rocket 3.5 22:09:28 10° NNW 22:12:07 46° NNW 22:12:07 46° NNW
Helios 1A 4.0 22:13:12 37° ENE 22:13:12 37° ENE 22:17:04 10° N
Cosmos 2360 Rocket 2.2 22:14:08 10° NNW 22:19:46 64° WSW 22:20:19 61° SW
COSMOS 2428 3.3 22:15:20 10° NNW 22:20:56 51° NE 22:22:37 39° ESE
ATLAS 3B R/B 2.5 22:21:12 54° SSW 22:22:45 75° SE 22:29:25 10° NE
Okean 2 4.3 22:21:34 10° N 22:25:03 40° ENE 22:25:03 40° ENE
ALOS 2 2.8 22:27:44 65° WNW 22:27:44 65° WNW 22:31:48 10° NNW
Cosmos 1725 Rocket 4.3 22:27:20 42° SW 22:29:17 59° WNW 22:35:34 10° N
SL-4 R/B 3.9 22:25:58 10° WNW 22:27:12 19° WNW 22:27:12 19° WNW
Nimbus 7 Rocket 4.3 22:25:13 10° NNE 22:31:08 88° WNW 22:32:15 61° SSW
Cosmos 1674 Rocket 4.0 22:29:24 10° NNW 22:33:13 54° WNW 22:33:13 54° WNW
Cosmos 2297 Rocket 4.4 22:34:19 12° E 22:34:20 12° E 22:36:23 10° ENE
Cosmos 1536 3.9 22:34:39 38° WNW 22:34:39 38° WNW 22:38:10 10° N
Cosmos 1666 4.3 22:37:32 28° WNW 22:37:32 28° WNW 22:40:33 10° NNW
Cosmos 1743 3.5 22:38:17 51° N 22:38:17 51° N 22:41:17 10° N
Cosmos 2333 Rocket 2.2 22:34:35 10° NNW 22:40:25 82° ENE 22:41:19 64° SE
Cosmos 1271 Rocket 3.6 22:38:01 10° NNW 22:40:47 46° NNW 22:40:47 46° NNW
Lacrosse 4 Rocket 2.0 22:45:23 51° NE 22:45:23 51° NE 22:48:37 10° NE
Cosmos 2237 Rocket 3.5 22:39:25 10° NNW 22:44:35 34° NE 22:47:32 21° E
Cosmos 1733 Rocket 4.2 22:50:59 34° W 22:51:11 34° WNW 22:55:15 10° N
Meteor 2-11 Rocket 4.3 22:51:23 62° SSW 22:52:29 82° WNW 22:58:37 10° N
Cosmos 44 Rocket 3.5 22:51:55 10° NW 22:56:54 68° NE 22:57:31 61° E
Cosmos 836 Rocket 4.5 22:52:55 10° NNW 22:58:03 66° WSW 22:58:03 66° WSW
CENTAUR R/B 3.8 22:52:46 10° WSW 22:58:45 42° NNW 23:05:49 10° NE
Cosmos 968 Rocket 3.3 22:59:01 84° SW 22:59:11 88° WNW 23:04:21 10° NNE
Cosmos 1975 3.4 23:02:22 54° NNE 23:02:22 54° NNE 23:05:35 10° NNE
SL-24 DEB 4.4 23:00:32 10° N 23:05:17 65° W 23:05:18 65° W
Resurs 1-4 Rocket 4.2 23:04:20 10° NE 23:07:07 14° E 23:08:21 13° ESE
Cosmos 1354 Rocket 4.0 23:07:09 66° ESE 23:07:17 66° ESE 23:12:36 10° NNE
Cosmos 1782 Rocket 3.7 23:10:37 70° NNE 23:10:37 70° NNE 23:14:30 10° N
USA 267 4.4 23:05:52 10° ENE 23:11:57 43° N 23:18:02 10° WNW
Cosmos 1707 3.7 23:12:57 10° N 23:16:13 44° NE 23:16:13 44° NE
Cosmos 1464 Rocket 3.9 23:15:36 61° S 23:16:48 86° E 23:23:02 10° N
Cosmos 1908 Rocket 4.3 23:18:33 44° WNW 23:18:33 44° WNW 23:22:34 10° N
Cosmos 1842 4.2 23:14:46 10° NNW 23:17:41 43° NW 23:17:41 43° NW
Cosmos 2344 4.5 23:12:21 10° NW 23:21:31 73° NE 23:34:18 10° SE
Helios 1B rocket 3.2 23:18:26 10° NNE 23:21:49 46° ENE 23:21:49 46° ENE
CZ-4 R/B 3.9 23:17:49 10° NNE 23:22:49 72° ESE 23:23:00 71° ESE
Cosmos 2227 Rocket 3.5 23:22:42 25° ESE 23:23:12 25° ESE 23:27:46 10° NE
Meteor 1-21 4.2 23:18:51 10° NNW 23:24:39 73° W 23:25:21 65° SSW
Cosmos 1777 Rocket 4.5 23:35:45 46° ESE 23:36:05 46° ESE 23:41:09 10° NNE
Nadezhda 4 Rocket 3.9 23:30:22 10° N 23:36:42 85° W 23:38:04 58° S
Cosmos 2219 Rocket 2.7 23:33:08 10° NW 23:38:19 43° WSW 23:38:19 43° WSW
Meteor 1-29 4.4 23:38:51 10° NNE 23:41:13 36° NE 23:41:13 36° NE
Cosmos 1975 Rocket 3.9 23:38:41 10° NNW 23:42:25 40° WNW 23:42:25 40° WNW
Okean 2 Rocket 3.1 23:45:22 79° ENE 23:45:22 79° ENE 23:49:46 10° NNE
Cosmos 2034 Rocket 3.9 23:43:53 57° SSW 23:45:17 83° W 23:51:39 10° N
Cosmos 1503 Rocket 4.4 23:45:55 49° WSW 23:46:53 56° WNW 23:52:12 10° NNE
SL-16 R/B 3.2 23:46:15 26° SE 23:49:42 52° ENE 23:55:44 10° N
ADEOS II 4.4 23:48:11 10° NE 23:50:52 14° E 23:53:32 10° ESE
Cosmos 1092 Rocket 4.0 23:44:39 10° N 23:50:57 80° E 23:52:44 49° SSE
Cosmos 1300 Rocket 3.5 23:52:28 81° NNE 23:52:28 81° NNE 23:56:35 10° N
GEOS 3 Rocket 3.9 23:47:33 10° NE 23:52:50 51° SE 23:53:17 49° SE
CZ-2D R/B 3.3 23:48:26 10° NNE 23:53:25 34° E 23:54:54 29° SE
Sich 1 Rocket 4.0 23:55:31 52° WNW 23:55:31 52° WNW 23:59:42 10° N
